Year,Month,Day,Hour,Minute,Value (Times are PST for temperature in C)
2014,07,16,00,00,19.60
2014,07,16,00,01,19.50
2014,07,16,00,02,19.50
2014,07,16,00,03,19.40
2014,07,16,00,04,19.40
2014,07,16,00,05,19.40
2014,07,16,00,06,19.30
2014,07,16,00,07,19.30
2014,07,16,00,09,19.30
2014,07,16,00,11,19.20
2014,07,16,00,12,19.20
2014,07,16,00,13,19.20
2014,07,16,00,14,19.20
2014,07,16,00,15,19.10
2014,07,16,00,16,19.10
2014,07,16,00,17,19.10
2014,07,16,00,18,19.10
2014,07,16,00,19,19.00
2014,07,16,00,20,19.00
2014,07,16,00,21,18.90
2014,07,16,00,22,18.90
2014,07,16,00,24,18.90
2014,07,16,00,25,18.80
2014,07,16,00,26,18.80
2014,07,16,00,27,18.80
2014,07,16,00,28,18.80
2014,07,16,00,30,18.80
2014,07,16,00,31,18.80
2014,07,16,00,32,18.70
2014,07,16,00,33,18.70
2014,07,16,00,34,18.70
2014,07,16,00,35,18.70
2014,07,16,00,36,18.70
2014,07,16,00,37,18.70
2014,07,16,00,38,18.70
2014,07,16,00,39,18.60
2014,07,16,00,40,18.60
2014,07,16,00,41,18.60
2014,07,16,00,42,18.60
2014,07,16,00,43,18.60
2014,07,16,00,44,18.60
2014,07,16,00,45,18.50
2014,07,16,00,46,18.50
2014,07,16,00,48,18.40
2014,07,16,00,49,18.40
2014,07,16,00,50,18.40
2014,07,16,00,51,18.30
2014,07,16,00,52,18.30
2014,07,16,00,53,18.30
2014,07,16,00,54,18.30
2014,07,16,00,55,18.30
2014,07,16,00,56,18.30
2014,07,16,00,57,18.20
2014,07,16,00,58,18.20
2014,07,16,00,59,18.20
2014,07,16,01,00,18.20
2014,07,16,01,01,18.20
2014,07,16,01,02,18.10
2014,07,16,01,03,18.20
2014,07,16,01,04,18.10
2014,07,16,01,05,18.10
2014,07,16,01,06,18.10
2014,07,16,01,07,18.10
2014,07,16,01,08,18.10
2014,07,16,01,09,18.00
2014,07,16,01,10,18.00
2014,07,16,01,11,18.00
2014,07,16,01,12,18.00
2014,07,16,01,13,18.00
2014,07,16,01,15,17.90
2014,07,16,01,16,17.90
2014,07,16,01,17,17.90
2014,07,16,01,18,17.90
2014,07,16,01,19,17.90
2014,07,16,01,20,17.90
2014,07,16,01,21,17.80
2014,07,16,01,22,17.80
2014,07,16,01,23,17.80
2014,07,16,01,24,17.80
2014,07,16,01,25,17.80
2014,07,16,01,26,17.80
2014,07,16,01,27,17.80
2014,07,16,01,28,17.80
2014,07,16,01,29,17.80
2014,07,16,01,31,17.70
2014,07,16,01,33,17.70
2014,07,16,01,34,17.70
2014,07,16,01,35,17.70
2014,07,16,01,37,17.60
2014,07,16,01,38,17.60
2014,07,16,01,39,17.60
2014,07,16,01,40,17.60
2014,07,16,01,41,17.60
2014,07,16,01,42,17.60
2014,07,16,01,43,17.60
2014,07,16,01,44,17.60
2014,07,16,01,45,17.50
2014,07,16,01,46,17.50
2014,07,16,01,47,17.40
2014,07,16,01,48,17.40
2014,07,16,01,49,17.40
2014,07,16,01,50,17.40
2014,07,16,01,51,17.40
2014,07,16,01,52,17.40
2014,07,16,01,53,17.40
2014,07,16,01,54,17.30
2014,07,16,01,55,17.30
2014,07,16,01,56,17.30
2014,07,16,01,57,17.30
2014,07,16,01,58,17.30
2014,07,16,01,59,17.30
2014,07,16,02,00,17.30
2014,07,16,02,01,17.30
2014,07,16,02,02,17.20
2014,07,16,02,03,17.20
2014,07,16,02,04,17.20
2014,07,16,02,05,17.20
2014,07,16,02,06,17.20
2014,07,16,02,07,17.20
2014,07,16,02,08,17.20
2014,07,16,02,09,17.10
2014,07,16,02,10,17.10
2014,07,16,02,11,17.10
2014,07,16,02,12,17.10
2014,07,16,02,13,17.10
2014,07,16,02,14,17.00
2014,07,16,02,15,17.00
2014,07,16,02,16,17.00
2014,07,16,02,17,17.00
2014,07,16,02,18,16.90
2014,07,16,02,19,16.90
2014,07,16,02,20,16.90
2014,07,16,02,21,16.90
2014,07,16,02,22,16.90
2014,07,16,02,23,16.90
2014,07,16,02,24,16.90
2014,07,16,02,25,16.80
2014,07,16,02,26,16.80
2014,07,16,02,27,16.80
2014,07,16,02,28,16.80
2014,07,16,02,29,16.80
2014,07,16,02,30,16.80
2014,07,16,02,31,16.80
2014,07,16,02,32,16.80
2014,07,16,02,33,16.80
2014,07,16,02,34,16.80
2014,07,16,02,36,16.70
2014,07,16,02,37,16.70
2014,07,16,02,38,16.70
2014,07,16,02,39,16.70
2014,07,16,02,40,16.70
2014,07,16,02,41,16.70
2014,07,16,02,42,16.70
2014,07,16,02,43,16.70
2014,07,16,02,44,16.70
2014,07,16,02,45,16.70
2014,07,16,02,47,16.70
2014,07,16,02,48,16.60
2014,07,16,02,49,16.60
2014,07,16,02,50,16.60
2014,07,16,02,51,16.60
2014,07,16,02,52,16.60
2014,07,16,02,53,16.60
2014,07,16,02,54,16.60
2014,07,16,02,55,16.60
2014,07,16,02,56,16.60
2014,07,16,02,57,16.50
2014,07,16,02,58,16.50
2014,07,16,02,59,16.50
2014,07,16,03,00,16.40
2014,07,16,03,01,16.40
2014,07,16,03,02,16.40
2014,07,16,03,03,16.40
2014,07,16,03,04,16.40
2014,07,16,03,05,16.30
2014,07,16,03,06,16.30
2014,07,16,03,07,16.30
2014,07,16,03,08,16.30
2014,07,16,03,09,16.30
2014,07,16,03,10,16.30
2014,07,16,03,11,16.30
2014,07,16,03,12,16.30
2014,07,16,03,13,16.20
2014,07,16,03,14,16.20
2014,07,16,03,15,16.20
2014,07,16,03,16,16.20
2014,07,16,03,17,16.20
2014,07,16,03,18,16.10
2014,07,16,03,19,16.10
2014,07,16,03,20,16.10
2014,07,16,03,21,16.10
2014,07,16,03,22,16.10
2014,07,16,03,23,16.10
2014,07,16,03,24,16.10
2014,07,16,03,25,16.10
2014,07,16,03,26,16.10
2014,07,16,03,27,16.10
2014,07,16,03,28,16.10
2014,07,16,03,29,16.10
2014,07,16,03,30,16.10
2014,07,16,03,31,16.10
2014,07,16,03,32,16.00
2014,07,16,03,33,16.00
2014,07,16,03,34,16.00
2014,07,16,03,35,16.00
2014,07,16,03,36,16.00
2014,07,16,03,37,16.00
2014,07,16,03,38,16.00
2014,07,16,03,39,16.00
2014,07,16,03,40,16.00
2014,07,16,03,41,16.00
2014,07,16,03,42,16.00
2014,07,16,03,43,16.00
2014,07,16,03,44,15.90
2014,07,16,03,45,15.90
2014,07,16,03,46,15.90
2014,07,16,03,47,15.90
2014,07,16,03,48,15.90
2014,07,16,03,50,15.90
2014,07,16,03,51,15.90
2014,07,16,03,52,15.90
2014,07,16,03,53,15.90
2014,07,16,03,54,15.90
2014,07,16,03,55,15.90
2014,07,16,03,56,15.90
2014,07,16,03,57,15.90
2014,07,16,03,58,15.90
2014,07,16,03,59,15.90
2014,07,16,04,00,15.90
2014,07,16,04,01,15.90
2014,07,16,04,02,15.80
2014,07,16,04,03,15.90
2014,07,16,04,05,15.80
2014,07,16,04,06,15.80
2014,07,16,04,08,15.80
2014,07,16,04,09,15.80
2014,07,16,04,10,15.80
2014,07,16,04,11,15.80
2014,07,16,04,12,15.80
2014,07,16,04,13,15.80
2014,07,16,04,14,15.80
2014,07,16,04,15,15.70
2014,07,16,04,16,15.70
2014,07,16,04,17,15.70
2014,07,16,04,18,15.70
2014,07,16,04,19,15.70
2014,07,16,04,20,15.70
2014,07,16,04,22,15.70
2014,07,16,04,23,15.70
2014,07,16,04,24,15.70
2014,07,16,04,25,15.70
2014,07,16,04,26,15.70
2014,07,16,04,27,15.70
2014,07,16,04,28,15.70
2014,07,16,04,29,15.70
2014,07,16,04,30,15.70
2014,07,16,04,31,15.70
2014,07,16,04,32,15.70
2014,07,16,04,33,15.70
2014,07,16,04,34,15.70
2014,07,16,04,35,15.70
2014,07,16,04,36,15.70
2014,07,16,04,37,15.70
2014,07,16,04,38,15.60
2014,07,16,04,39,15.60
2014,07,16,04,40,15.60
2014,07,16,04,41,15.60
2014,07,16,04,42,15.60
2014,07,16,04,43,15.60
2014,07,16,04,44,15.60
2014,07,16,04,45,15.60
2014,07,16,04,46,15.60
2014,07,16,04,47,15.60
2014,07,16,04,48,15.60
2014,07,16,04,50,15.60
2014,07,16,04,51,15.60
2014,07,16,04,52,15.60
2014,07,16,04,53,15.60
2014,07,16,04,55,15.60
2014,07,16,04,56,15.60
2014,07,16,04,57,15.60
2014,07,16,04,58,15.60
2014,07,16,04,59,15.60
2014,07,16,05,00,15.60
2014,07,16,05,01,15.60
2014,07,16,05,02,15.60
2014,07,16,05,03,15.50
2014,07,16,05,04,15.50
2014,07,16,05,05,15.50
2014,07,16,05,06,15.50
2014,07,16,05,07,15.40
2014,07,16,05,08,15.40
2014,07,16,05,09,15.40
2014,07,16,05,10,15.40
2014,07,16,05,11,15.40
2014,07,16,05,12,15.40
2014,07,16,05,13,15.40
2014,07,16,05,14,15.30
2014,07,16,05,15,15.30
2014,07,16,05,16,15.30
2014,07,16,05,17,15.30
2014,07,16,05,18,15.30
2014,07,16,05,19,15.30
2014,07,16,05,20,15.30
2014,07,16,05,21,15.30
2014,07,16,05,22,15.30
2014,07,16,05,23,15.30
2014,07,16,05,24,15.30
2014,07,16,05,25,15.20
2014,07,16,05,26,15.20
2014,07,16,05,27,15.30
2014,07,16,05,28,15.20
2014,07,16,05,29,15.20
2014,07,16,05,30,15.20
2014,07,16,05,31,15.20
2014,07,16,05,32,15.20
2014,07,16,05,33,15.20
2014,07,16,05,34,15.20
2014,07,16,05,35,15.20
2014,07,16,05,36,15.20
2014,07,16,05,37,15.20
2014,07,16,05,38,15.20
2014,07,16,05,39,15.20
2014,07,16,05,40,15.20
2014,07,16,05,41,15.20
2014,07,16,05,42,15.20
2014,07,16,05,43,15.20
2014,07,16,05,44,15.20
2014,07,16,05,45,15.20
2014,07,16,05,46,15.20
2014,07,16,05,47,15.20
2014,07,16,05,48,15.20
2014,07,16,05,49,15.20
2014,07,16,05,50,15.20
2014,07,16,05,52,15.20
2014,07,16,05,53,15.20
2014,07,16,05,54,15.20
2014,07,16,05,55,15.20
2014,07,16,05,56,15.20
2014,07,16,05,57,15.20
2014,07,16,05,59,15.20
2014,07,16,06,00,15.20
2014,07,16,06,01,15.20
2014,07,16,06,02,15.20
2014,07,16,06,03,15.20
2014,07,16,06,04,15.20
2014,07,16,06,05,15.20
2014,07,16,06,06,15.20
2014,07,16,06,07,15.20
2014,07,16,06,08,15.20
2014,07,16,06,09,15.20
2014,07,16,06,10,15.20
2014,07,16,06,11,15.20
2014,07,16,06,12,15.20
2014,07,16,06,13,15.20
2014,07,16,06,15,15.20
2014,07,16,06,17,15.20
2014,07,16,06,18,15.20
2014,07,16,06,19,15.20
2014,07,16,06,20,15.20
2014,07,16,06,21,15.30
2014,07,16,06,22,15.30
2014,07,16,06,23,15.30
2014,07,16,06,24,15.30
2014,07,16,06,25,15.40
2014,07,16,06,26,15.40
2014,07,16,06,27,15.40
2014,07,16,06,28,15.50
2014,07,16,06,30,15.70
2014,07,16,06,31,15.70
2014,07,16,06,32,15.80
2014,07,16,06,33,15.80
2014,07,16,06,34,15.90
2014,07,16,06,35,16.00
2014,07,16,06,36,16.10
2014,07,16,06,37,16.10
2014,07,16,06,38,16.20
2014,07,16,06,39,16.20
2014,07,16,06,40,16.20
2014,07,16,06,41,16.30
2014,07,16,06,42,16.30
2014,07,16,06,43,16.30
2014,07,16,06,45,16.40
2014,07,16,06,46,16.40
2014,07,16,06,47,16.40
2014,07,16,06,48,16.50
2014,07,16,06,49,16.60
2014,07,16,06,50,16.70
2014,07,16,06,51,16.70
2014,07,16,06,52,16.80
2014,07,16,06,53,16.90
2014,07,16,06,54,16.90
2014,07,16,06,55,16.90
2014,07,16,06,56,17.00
2014,07,16,06,57,17.00
2014,07,16,06,58,17.10
2014,07,16,06,59,17.10
2014,07,16,07,00,17.10
2014,07,16,07,01,17.10
2014,07,16,07,02,17.10
2014,07,16,07,03,17.20
2014,07,16,07,04,17.20
2014,07,16,07,05,17.20
2014,07,16,07,06,17.20
2014,07,16,07,07,17.20
2014,07,16,07,08,17.20
2014,07,16,07,09,17.20
2014,07,16,07,10,17.20
2014,07,16,07,11,17.30
2014,07,16,07,12,17.30
2014,07,16,07,13,17.30
2014,07,16,07,14,17.40
2014,07,16,07,15,17.50
2014,07,16,07,17,17.60
2014,07,16,07,19,17.60
2014,07,16,07,20,17.70
2014,07,16,07,21,17.70
2014,07,16,07,22,17.80
2014,07,16,07,23,17.90
2014,07,16,07,25,18.10
2014,07,16,07,26,18.20
2014,07,16,07,27,18.30
2014,07,16,07,29,18.60
2014,07,16,07,30,18.70
2014,07,16,07,31,18.80
2014,07,16,07,32,18.80
2014,07,16,07,33,18.90
2014,07,16,07,34,19.10
2014,07,16,07,35,19.10
2014,07,16,07,36,19.20
2014,07,16,07,37,19.30
2014,07,16,07,38,19.30
2014,07,16,07,39,19.40
2014,07,16,07,40,19.50
2014,07,16,07,41,19.60
2014,07,16,07,42,19.70
2014,07,16,07,43,19.70
2014,07,16,07,44,19.80
2014,07,16,07,45,19.80
2014,07,16,07,46,19.90
2014,07,16,07,47,19.90
2014,07,16,07,48,19.90
2014,07,16,07,49,19.90
2014,07,16,07,50,19.80
2014,07,16,07,51,19.80
2014,07,16,07,52,19.80
2014,07,16,07,53,19.80
2014,07,16,07,54,19.80
2014,07,16,07,55,19.80
2014,07,16,07,56,19.70
2014,07,16,07,58,19.70
2014,07,16,07,59,19.70
2014,07,16,08,00,19.70
2014,07,16,08,02,19.70
2014,07,16,08,03,19.80
2014,07,16,08,04,19.80
2014,07,16,08,05,19.80
2014,07,16,08,06,19.90
2014,07,16,08,07,20.00
2014,07,16,08,09,20.20
2014,07,16,08,10,20.20
2014,07,16,08,11,20.30
2014,07,16,08,12,20.40
2014,07,16,08,13,20.40
2014,07,16,08,14,20.50
2014,07,16,08,15,20.60
2014,07,16,08,16,20.60
2014,07,16,08,17,20.60
2014,07,16,08,18,20.60
2014,07,16,08,19,20.60
2014,07,16,08,20,20.60
2014,07,16,08,21,20.70
2014,07,16,08,22,20.70
2014,07,16,08,23,20.80
2014,07,16,08,24,20.80
2014,07,16,08,25,20.90
2014,07,16,08,26,21.00
2014,07,16,08,28,21.10
2014,07,16,08,29,21.10
2014,07,16,08,30,21.00
2014,07,16,08,31,20.90
2014,07,16,08,32,20.80
2014,07,16,08,33,20.80
2014,07,16,08,34,20.70
2014,07,16,08,35,20.70
2014,07,16,08,36,20.70
2014,07,16,08,37,20.60
2014,07,16,08,38,20.60
2014,07,16,08,39,20.60
2014,07,16,08,40,20.60
2014,07,16,08,41,20.60
2014,07,16,08,42,20.60
2014,07,16,08,43,20.70
2014,07,16,08,44,20.70
2014,07,16,08,45,20.70
2014,07,16,08,46,20.70
2014,07,16,08,48,20.70
2014,07,16,08,49,20.70
2014,07,16,08,50,20.80
2014,07,16,08,51,20.80
2014,07,16,08,52,20.80
2014,07,16,08,53,20.80
2014,07,16,08,54,20.80
2014,07,16,08,55,20.90
2014,07,16,08,56,21.00
2014,07,16,08,57,21.10
2014,07,16,08,58,21.10
2014,07,16,08,59,21.20
2014,07,16,09,01,21.30
2014,07,16,09,02,21.40
2014,07,16,09,03,21.40
2014,07,16,09,04,21.40
2014,07,16,09,05,21.50
2014,07,16,09,06,21.50
2014,07,16,09,07,21.60
2014,07,16,09,08,21.60
2014,07,16,09,09,21.60
2014,07,16,09,10,21.60
2014,07,16,09,11,21.60
2014,07,16,09,12,21.70
2014,07,16,09,13,21.70
2014,07,16,09,15,21.80
2014,07,16,09,16,21.80
2014,07,16,09,17,21.80
2014,07,16,09,18,21.80
2014,07,16,09,20,21.90
2014,07,16,09,21,21.90
2014,07,16,09,22,21.90
2014,07,16,09,23,22.00
2014,07,16,09,24,22.10
2014,07,16,09,25,22.10
2014,07,16,09,26,22.10
2014,07,16,09,27,22.20
2014,07,16,09,28,22.20
2014,07,16,09,29,22.20
2014,07,16,09,30,22.30
2014,07,16,09,31,22.30
2014,07,16,09,32,22.40
2014,07,16,09,33,22.40
2014,07,16,09,34,22.60
2014,07,16,09,35,22.60
2014,07,16,09,36,22.70
2014,07,16,09,37,22.80
2014,07,16,09,39,22.80
2014,07,16,09,40,22.80
2014,07,16,09,41,22.80
2014,07,16,09,42,22.80
2014,07,16,09,43,22.80
2014,07,16,09,45,22.90
2014,07,16,09,46,22.90
2014,07,16,09,47,23.00
2014,07,16,09,48,23.00
2014,07,16,09,50,23.10
2014,07,16,09,51,23.10
2014,07,16,09,52,23.20
2014,07,16,09,54,23.20
2014,07,16,09,56,23.30
2014,07,16,09,57,23.30
2014,07,16,09,58,23.30
2014,07,16,09,59,23.40
2014,07,16,10,00,23.40
2014,07,16,10,01,23.50
2014,07,16,10,02,23.60
2014,07,16,10,03,23.60
2014,07,16,10,04,23.60
2014,07,16,10,05,23.60
2014,07,16,10,07,23.70
2014,07,16,10,08,23.80
2014,07,16,10,10,23.90
2014,07,16,10,11,23.90
2014,07,16,10,13,24.00
2014,07,16,10,14,24.10
2014,07,16,10,15,24.10
2014,07,16,10,16,24.10
2014,07,16,10,17,24.20
2014,07,16,10,18,24.20
2014,07,16,10,19,24.20
2014,07,16,10,20,24.30
2014,07,16,10,21,24.30
2014,07,16,10,22,24.30
2014,07,16,10,23,24.30
2014,07,16,10,24,24.40
2014,07,16,10,26,24.60
2014,07,16,10,27,24.70
2014,07,16,10,28,24.80
2014,07,16,10,30,25.10
2014,07,16,10,31,25.20
2014,07,16,10,32,25.30
2014,07,16,10,33,25.40
2014,07,16,10,35,25.70
2014,07,16,10,36,25.70
2014,07,16,10,37,25.80
2014,07,16,10,38,25.80
2014,07,16,10,39,25.90
2014,07,16,10,40,25.90
2014,07,16,10,41,25.90
2014,07,16,10,42,25.90
2014,07,16,10,43,25.90
2014,07,16,10,45,25.70
2014,07,16,10,46,25.70
2014,07,16,10,47,25.70
2014,07,16,10,48,25.70
2014,07,16,10,49,25.70
2014,07,16,10,50,25.70
2014,07,16,10,51,25.70
2014,07,16,10,52,25.70
2014,07,16,10,53,25.70
2014,07,16,10,54,25.70
2014,07,16,10,55,25.80
2014,07,16,10,56,25.80
2014,07,16,10,57,25.90
2014,07,16,10,58,25.90
2014,07,16,10,59,26.00
2014,07,16,11,00,26.10
2014,07,16,11,01,26.10
2014,07,16,11,02,26.20
2014,07,16,11,03,26.20
2014,07,16,11,04,26.20
2014,07,16,11,05,26.20
2014,07,16,11,06,26.20
2014,07,16,11,07,26.10
2014,07,16,11,08,26.10
2014,07,16,11,09,26.00
2014,07,16,11,10,25.90
2014,07,16,11,12,25.80
2014,07,16,11,13,25.70
2014,07,16,11,14,25.70
2014,07,16,11,16,25.70
2014,07,16,11,17,25.70
2014,07,16,11,18,25.80
2014,07,16,11,19,25.90
2014,07,16,11,21,26.10
2014,07,16,11,22,26.20
2014,07,16,11,23,26.30
2014,07,16,11,25,26.40
2014,07,16,11,27,26.40
2014,07,16,11,28,26.40
2014,07,16,11,29,26.40
2014,07,16,11,30,26.40
2014,07,16,11,31,26.40
2014,07,16,11,32,26.40
2014,07,16,11,33,26.40
2014,07,16,11,34,26.50
2014,07,16,11,35,26.60
2014,07,16,11,36,26.60
2014,07,16,11,37,26.70
2014,07,16,11,38,26.70
2014,07,16,11,39,26.70
2014,07,16,11,40,26.70
2014,07,16,11,41,26.70
2014,07,16,11,42,26.70
2014,07,16,11,43,26.70
2014,07,16,11,44,26.70
2014,07,16,11,45,26.80
2014,07,16,11,46,26.80
2014,07,16,11,47,26.90
2014,07,16,11,48,26.90
2014,07,16,11,49,26.90
2014,07,16,11,50,26.90
2014,07,16,11,51,26.90
2014,07,16,11,52,26.90
2014,07,16,11,53,27.10
2014,07,16,11,54,27.10
2014,07,16,11,55,27.10
2014,07,16,11,56,27.10
2014,07,16,11,57,27.10
2014,07,16,11,58,27.10
2014,07,16,11,59,27.10
2014,07,16,12,00,27.20
2014,07,16,12,01,27.20
2014,07,16,12,02,27.20
2014,07,16,12,03,27.30
2014,07,16,12,04,27.40
2014,07,16,12,05,27.40
2014,07,16,12,06,27.60
2014,07,16,12,07,27.60
2014,07,16,12,08,27.70
2014,07,16,12,09,27.70
2014,07,16,12,10,27.70
2014,07,16,12,11,27.80
2014,07,16,12,12,27.80
2014,07,16,12,13,27.90
2014,07,16,12,14,27.90
2014,07,16,12,15,27.90
2014,07,16,12,16,28.00
2014,07,16,12,17,28.10
2014,07,16,12,18,28.10
2014,07,16,12,19,28.20
2014,07,16,12,20,28.20
2014,07,16,12,21,28.30
2014,07,16,12,22,28.40
2014,07,16,12,23,28.40
2014,07,16,12,24,28.50
2014,07,16,12,25,28.50
2014,07,16,12,26,28.50
2014,07,16,12,27,28.50
2014,07,16,12,28,28.60
2014,07,16,12,29,28.60
2014,07,16,12,30,28.50
2014,07,16,12,31,28.60
2014,07,16,12,32,28.60
2014,07,16,12,33,28.60
2014,07,16,12,34,28.60
2014,07,16,12,35,28.60
2014,07,16,12,36,28.60
2014,07,16,12,37,28.60
2014,07,16,12,38,28.60
2014,07,16,12,39,28.70
2014,07,16,12,40,28.70
2014,07,16,12,41,28.70
2014,07,16,12,42,28.70
2014,07,16,12,43,28.80
2014,07,16,12,44,28.80
2014,07,16,12,45,28.90
2014,07,16,12,46,28.90
2014,07,16,12,47,29.00
2014,07,16,12,48,29.00
2014,07,16,12,49,29.10
2014,07,16,12,50,29.20
2014,07,16,12,51,29.20
2014,07,16,12,52,29.30
2014,07,16,12,53,29.40
2014,07,16,12,54,29.50
2014,07,16,12,55,29.60
2014,07,16,12,56,29.70
2014,07,16,12,57,29.70
2014,07,16,12,58,29.70
2014,07,16,12,59,29.70
2014,07,16,13,00,29.70
2014,07,16,13,01,29.80
2014,07,16,13,02,29.80
2014,07,16,13,03,29.80
2014,07,16,13,04,29.90
2014,07,16,13,05,30.00
2014,07,16,13,06,30.10
2014,07,16,13,07,30.10
2014,07,16,13,08,30.10
2014,07,16,13,09,30.10
2014,07,16,13,10,30.20
2014,07,16,13,11,30.30
2014,07,16,13,12,30.30
2014,07,16,13,13,30.40
2014,07,16,13,14,30.40
2014,07,16,13,15,30.40
2014,07,16,13,16,30.50
2014,07,16,13,17,30.50
2014,07,16,13,18,30.40
2014,07,16,13,19,30.40
2014,07,16,13,20,30.40
2014,07,16,13,21,30.50
2014,07,16,13,22,30.60
2014,07,16,13,23,30.70
2014,07,16,13,24,30.70
2014,07,16,13,25,30.70
2014,07,16,13,26,30.70
2014,07,16,13,27,30.70
2014,07,16,13,28,30.70
2014,07,16,13,29,30.70
2014,07,16,13,30,30.70
2014,07,16,13,31,30.70
2014,07,16,13,32,30.70
2014,07,16,13,33,30.60
2014,07,16,13,34,30.60
2014,07,16,13,35,30.60
2014,07,16,13,36,30.60
2014,07,16,13,37,30.60
2014,07,16,13,38,30.60
2014,07,16,13,39,30.60
2014,07,16,13,40,30.70
2014,07,16,13,41,30.70
2014,07,16,13,42,30.70
2014,07,16,13,43,30.70
2014,07,16,13,44,30.70
2014,07,16,13,45,30.70
2014,07,16,13,46,30.70
2014,07,16,13,47,30.70
2014,07,16,13,48,30.80
2014,07,16,13,49,30.80
2014,07,16,13,50,30.80
2014,07,16,13,51,30.80
2014,07,16,13,52,30.90
2014,07,16,13,53,30.90
2014,07,16,13,54,30.90
2014,07,16,13,55,30.90
2014,07,16,13,56,30.90
2014,07,16,13,57,30.90
2014,07,16,13,58,30.90
2014,07,16,13,59,30.90
2014,07,16,14,00,30.90
2014,07,16,14,01,30.90
2014,07,16,14,02,30.90
2014,07,16,14,03,30.80
2014,07,16,14,04,30.90
2014,07,16,14,05,30.90
2014,07,16,14,06,30.90
2014,07,16,14,07,30.90
2014,07,16,14,08,30.90
2014,07,16,14,09,30.90
2014,07,16,14,10,30.90
2014,07,16,14,11,30.90
2014,07,16,14,12,31.00
2014,07,16,14,13,31.00
2014,07,16,14,14,31.00
2014,07,16,14,15,31.00
2014,07,16,14,16,31.00
2014,07,16,14,17,31.10
2014,07,16,14,18,31.10
2014,07,16,14,19,31.10
2014,07,16,14,20,31.10
2014,07,16,14,21,31.10
2014,07,16,14,22,31.20
2014,07,16,14,23,31.20
2014,07,16,14,24,31.20
2014,07,16,14,25,31.20
2014,07,16,14,26,31.20
2014,07,16,14,27,31.20
2014,07,16,14,28,31.20
2014,07,16,14,29,31.20
2014,07,16,14,30,31.20
2014,07,16,14,31,31.20
2014,07,16,14,32,31.10
2014,07,16,14,33,31.10
2014,07,16,14,34,31.20
2014,07,16,14,35,31.20
2014,07,16,14,36,31.20
2014,07,16,14,37,31.20
2014,07,16,14,38,31.20
2014,07,16,14,39,31.20
2014,07,16,14,40,31.20
2014,07,16,14,41,31.20
2014,07,16,14,42,31.20
2014,07,16,14,43,31.20
2014,07,16,14,44,31.30
2014,07,16,14,45,31.30
2014,07,16,14,46,31.40
2014,07,16,14,47,31.40
2014,07,16,14,48,31.30
2014,07,16,14,49,31.30
2014,07,16,14,50,31.30
2014,07,16,14,51,31.30
2014,07,16,14,52,31.40
2014,07,16,14,53,31.40
2014,07,16,14,54,31.50
2014,07,16,14,55,31.50
2014,07,16,14,56,31.50
2014,07,16,14,57,31.50
2014,07,16,14,58,31.50
2014,07,16,14,59,31.60
2014,07,16,15,00,31.60
2014,07,16,15,01,31.60
2014,07,16,15,02,31.70
2014,07,16,15,03,31.70
2014,07,16,15,04,31.70
2014,07,16,15,05,31.70
2014,07,16,15,06,31.70
2014,07,16,15,07,31.70
2014,07,16,15,08,31.60
2014,07,16,15,09,31.60
2014,07,16,15,10,31.50
2014,07,16,15,11,31.40
2014,07,16,15,12,31.30
2014,07,16,15,13,31.30
2014,07,16,15,14,31.40
2014,07,16,15,15,31.40
2014,07,16,15,16,31.30
2014,07,16,15,17,31.30
2014,07,16,15,18,31.30
2014,07,16,15,19,31.40
2014,07,16,15,20,31.40
2014,07,16,15,21,31.40
2014,07,16,15,22,31.50
2014,07,16,15,23,31.40
2014,07,16,15,24,31.40
2014,07,16,15,25,31.40
2014,07,16,15,26,31.40
2014,07,16,15,27,31.40
2014,07,16,15,28,31.60
2014,07,16,15,29,31.60
2014,07,16,15,30,31.60
2014,07,16,15,31,31.70
2014,07,16,15,32,31.70
2014,07,16,15,33,31.70
2014,07,16,15,34,31.70
2014,07,16,15,35,31.60
2014,07,16,15,36,31.40
2014,07,16,15,37,31.40
2014,07,16,15,38,31.40
2014,07,16,15,39,31.40
2014,07,16,15,40,31.40
2014,07,16,15,41,31.40
2014,07,16,15,42,31.40
2014,07,16,15,43,31.40
2014,07,16,15,44,31.50
2014,07,16,15,45,31.40
2014,07,16,15,46,31.40
2014,07,16,15,47,31.30
2014,07,16,15,48,31.30
2014,07,16,15,49,31.20
2014,07,16,15,50,31.10
2014,07,16,15,51,31.10
2014,07,16,15,52,31.10
2014,07,16,15,53,31.10
2014,07,16,15,54,31.10
2014,07,16,15,55,31.10
2014,07,16,15,56,31.10
2014,07,16,15,57,31.20
2014,07,16,15,58,31.20
2014,07,16,15,59,31.20
2014,07,16,16,00,31.20
2014,07,16,16,01,31.30
2014,07,16,16,02,31.30
2014,07,16,16,03,31.30
2014,07,16,16,04,31.30
2014,07,16,16,05,31.30
2014,07,16,16,06,31.30
2014,07,16,16,07,31.30
2014,07,16,16,08,31.30
2014,07,16,16,09,31.30
2014,07,16,16,10,31.30
2014,07,16,16,11,31.30
2014,07,16,16,12,31.30
2014,07,16,16,13,31.30
2014,07,16,16,14,31.40
2014,07,16,16,15,31.40
2014,07,16,16,16,31.30
2014,07,16,16,17,31.30
2014,07,16,16,18,31.30
2014,07,16,16,19,31.30
2014,07,16,16,20,31.30
2014,07,16,16,21,31.30
2014,07,16,16,22,31.30
2014,07,16,16,23,31.30
2014,07,16,16,24,31.30
2014,07,16,16,25,31.30
2014,07,16,16,26,31.30
2014,07,16,16,27,31.30
2014,07,16,16,28,31.30
2014,07,16,16,29,31.30
2014,07,16,16,30,31.30
2014,07,16,16,31,31.30
2014,07,16,16,33,31.40
2014,07,16,16,34,31.30
2014,07,16,16,35,31.30
2014,07,16,16,36,31.20
2014,07,16,16,37,31.10
2014,07,16,16,38,31.10
2014,07,16,16,39,31.10
2014,07,16,16,40,31.00
2014,07,16,16,41,31.00
2014,07,16,16,42,30.90
2014,07,16,16,43,30.90
2014,07,16,16,44,31.00
2014,07,16,16,45,31.00
2014,07,16,16,46,31.00
2014,07,16,16,47,31.10
2014,07,16,16,48,31.10
2014,07,16,16,49,31.10
2014,07,16,16,50,31.10
2014,07,16,16,51,31.10
2014,07,16,16,52,31.00
2014,07,16,16,53,30.90
2014,07,16,16,54,30.90
2014,07,16,16,55,30.80
2014,07,16,16,56,30.80
2014,07,16,16,57,30.90
2014,07,16,16,58,30.90
2014,07,16,16,59,30.90
2014,07,16,17,00,30.90
2014,07,16,17,01,30.90
2014,07,16,17,02,30.80
2014,07,16,17,03,30.70
2014,07,16,17,04,30.60
2014,07,16,17,05,30.50
2014,07,16,17,06,30.40
2014,07,16,17,07,30.30
2014,07,16,17,08,30.20
2014,07,16,17,09,30.10
2014,07,16,17,10,30.10
2014,07,16,17,11,30.00
2014,07,16,17,12,29.90
2014,07,16,17,13,29.90
2014,07,16,17,14,29.80
2014,07,16,17,15,29.80
2014,07,16,17,16,29.80
2014,07,16,17,17,29.80
2014,07,16,17,18,29.80
2014,07,16,17,19,29.80
2014,07,16,17,20,29.80
2014,07,16,17,21,29.80
2014,07,16,17,22,29.70
2014,07,16,17,23,29.70
2014,07,16,17,24,29.80
2014,07,16,17,25,29.80
2014,07,16,17,26,29.80
2014,07,16,17,27,29.80
2014,07,16,17,28,29.80
2014,07,16,17,29,29.80
2014,07,16,17,30,29.80
2014,07,16,17,31,29.70
2014,07,16,17,32,29.70
2014,07,16,17,33,29.70
2014,07,16,17,34,29.70
2014,07,16,17,35,29.60
2014,07,16,17,36,29.60
2014,07,16,17,37,29.60
2014,07,16,17,38,29.60
2014,07,16,17,39,29.60
2014,07,16,17,42,29.60
2014,07,16,17,43,29.60
2014,07,16,17,44,29.60
2014,07,16,17,45,29.60
2014,07,16,17,46,29.60
2014,07,16,17,47,29.60
2014,07,16,17,48,29.70
2014,07,16,17,49,29.60
2014,07,16,17,50,29.60
2014,07,16,17,51,29.50
2014,07,16,17,52,29.40
2014,07,16,17,53,29.40
2014,07,16,17,54,29.40
2014,07,16,17,55,29.30
2014,07,16,17,56,29.40
2014,07,16,17,57,29.40
2014,07,16,17,58,29.40
2014,07,16,17,59,29.30
2014,07,16,18,00,29.30
2014,07,16,18,01,29.30
2014,07,16,18,02,29.30
2014,07,16,18,03,29.20
2014,07,16,18,04,29.20
2014,07,16,18,05,29.30
2014,07,16,18,06,29.30
2014,07,16,18,07,29.30
2014,07,16,18,08,29.40
2014,07,16,18,09,29.50
2014,07,16,18,10,29.60
2014,07,16,18,11,29.60
2014,07,16,18,12,29.70
2014,07,16,18,13,29.70
2014,07,16,18,14,29.70